FW6990 Weather Reports


Display with metric or nautical units.
time (UTC)temp
F
wind
direction
speed
MPH
gust
MPH
rain 1hr
in
rain 24hr
in
rain mn
in
humidity
%
barometer
mb
20260505063732 61 268 2.0 2.0 0.00 0.00 0.00 66 1011.9
20260505063228 61 185 0.0 2.0 0.00 0.00 0.00 65 1011.9
20260505062725 62 113 0.0 3.0 0.00 0.00 0.00 64 1012.0
20260505062223 62 209 0.0 3.0 0.00 0.00 0.00 64 1011.8
20260505061719 62 178 1.0 2.0 0.00 0.00 0.00 63 1012.0
20260505061217 62 25 2.0 2.0 0.00 0.00 0.00 63 1012.1
20260505060715 62 275 2.0 2.0 0.00 0.00 0.00 63 1012.0
20260505060211 62 163 1.0 2.0 0.00 0.00 0.00 64 1011.9
20260505055707 62 160 0.0 2.0 0.00 0.00 0.00 64 1012.2
20260505055203 62 145 0.0 2.0 0.00 0.00 0.00 63 1012.1
20260505054701 62 147 0.0 1.0 0.00 0.00 0.00 63 1012.2
20260505054159 62 205 0.0 2.0 0.00 0.00 0.00 62 1012.1
20260505053656 62 208 0.0 2.0 0.00 0.00 0.00 62 1012.1
20260505053153 62 154 0.0 2.0 0.00 0.00 0.00 61 1012.2
20260505052649 62 135 0.0 1.0 0.00 0.00 0.00 61 1012.1
20260505052147 63 175 2.0 2.0 0.00 0.00 0.00 60 1012.0
20260505051643 63 227 1.0 2.0 0.00 0.00 0.00 60 1012.1
20260505051142 63 244 2.0 2.0 0.00 0.00 0.00 60 1012.1
20260505050639 62 226 2.0 2.0 0.00 0.00 0.00 61 1012.1
20260505050138 62 47 1.0 2.0 0.00 0.00 0.00 61 1012.1
20260505041607 62 89 0.0 1.0 0.00 0.00 0.00 61 1012.0
20260505041104 62 155 2.0 3.0 0.00 0.00 0.00 60 1012.1
20260505040602 62 63 0.0 3.0 0.00 0.00 0.00 60 1012.1
20260505040059 63 210 0.0 2.0 0.00 0.00 0.00 59 1012.1
20260505035555 62 191 1.0 3.0 0.00 0.00 0.00 59 1012.2
20260505035051 62 84 2.0 3.0 0.00 0.00 0.00 60 1012.2
20260505034548 62 155 0.0 2.0 0.00 0.00 0.00 61 1012.3
20260505034045 62 94 0.0 2.0 0.00 0.00 0.00 61 1012.2
20260505033542 62 181 1.0 2.0 0.00 0.00 0.00 61 1011.9
20260505033040 62 210 1.0 2.0 0.00 0.00 0.00 60 1012.0
20260505032538 63 144 2.0 3.0 0.00 0.00 0.00 60 1012.0
20260505032034 62 187 0.0 2.0 0.00 0.00 0.00 60 1012.1
20260505031531 62 172 0.0 2.0 0.00 0.00 0.00 60 1012.0
20260505031027 62 103 1.0 2.0 0.00 0.00 0.00 60 1012.0
20260505030525 62 153 1.0 2.0 0.00 0.00 0.00 60 1012.2
20260505030021 63 160 1.0 2.0 0.00 0.00 0.00 59 1012.3
20260505025516 63 124 0.0 1.0 0.00 0.00 0.00 58 1012.2
20260505025016 62 242 2.0 4.0 0.00 0.00 0.00 58 1012.2
20260505024512 62 174 1.0 2.0 0.00 0.00 0.00 57 1012.3
20260505024009 62 150 0.0 2.0 0.00 0.00 0.00 57 1012.4
20260505023506 62 143 1.0 3.0 0.00 0.00 0.00 55 1012.4
20260505023004 62 144 2.0 2.0 0.00 0.00 0.00 55 1012.4
20260505022501 62 21 0.0 2.0 0.00 0.00 0.00 53 1012.2
20260505021958 63 160 2.0 2.0 0.00 0.00 0.00 52 1012.4
20260505021455 63 204 2.0 2.0 0.00 0.00 0.00 51 1012.3
20260505020950 63 212 1.0 2.0 0.00 0.00 0.00 50 1012.2
20260505020445 63 44 0.0 2.0 0.00 0.00 0.00 49 1012.3
20260505015943 63 108 2.0 2.0 0.00 0.00 0.00 50 1012.4
20260505015440 63 132 1.0 3.0 0.00 0.00 0.00 48 1012.3
20260505014937 63 173 0.0 2.0 0.00 0.00 0.00 47 1012.4
20260505014434 64 119 1.0 2.0 0.00 0.00 0.00 47 1012.3
20260505013931 63 197 2.0 2.0 0.00 0.00 0.00 47 1012.4
20260505013428 64 139 0.0 2.0 0.00 0.00 0.00 47 1012.3
20260505012926 64 163 0.0 2.0 0.00 0.00 0.00 46 1012.2
20260505012424 64 139 1.0 2.0 0.00 0.00 0.00 46 1012.2
20260505011920 64 200 0.0 2.0 0.00 0.00 0.00 46 1012.2
20260505011416 64 123 2.0 2.0 0.00 0.00 0.00 46 1012.1
20260505010913 64 303 0.0 2.0 0.00 0.00 0.00 45 1012.2
20260505010409 65 137 0.0 2.0 0.00 0.00 0.00 45 1012.1
20260505005904 65 135 0.0 1.0 0.00 0.00 0.00 45 1012.2
20260505005402 65 182 1.0 2.0 0.00 0.00 0.00 44 1011.9
20260505004859 65 160 0.0 3.0 0.00 0.00 0.00 44 1011.8
20260505004355 65 224 0.0 2.0 0.00 0.00 0.00 43 1011.8
20260505003853 65 154 1.0 1.0 0.00 0.00 0.00 43 1011.7
20260505003350 65 172 0.0 1.0 0.00 0.00 0.00 42 1011.7
20260505002846 66 155 0.0 1.0 0.00 0.00 0.00 43 1011.6
20260505002343 66 176 0.0 1.0 0.00 0.00 0.00 42 1011.8
20260505001841 66 151 0.0 2.0 0.00 0.00 0.00 40 1011.5
20260505001338 67 150 0.0 2.0 0.00 0.00 0.00 41 1011.5
20260505000835 67 174 1.0 1.0 0.00 0.00 0.00 40 1011.4
20260505000333 68 135 0.0 2.0 0.00 0.00 0.00 40 1011.7
20260504235829 68 188 0.0 1.0 0.00 0.00 0.00 40 1011.4
20260504235327 68 129 0.0 1.0 0.00 0.00 0.00 40 1011.3
20260504234823 69 212 0.0 1.0 0.00 0.00 0.00 38 1011.3
20260504234321 69 146 0.0 2.0 0.00 0.00 0.00 37 1011.5
20260504233817 70 248 2.0 2.0 0.00 0.00 0.00 37 1011.3
20260504233313 70 279 1.0 2.0 0.00 0.00 0.00 36 1011.3
20260504232810 71 215 1.0 3.0 0.00 0.00 0.00 35 1011.3
20260504232307 71 172 2.0 4.0 0.00 0.00 0.00 34 1011.4
20260504231804 71 46 0.0 3.0 0.00 0.00 0.00 33 1011.2
20260504231300 71 226 2.0 6.0 0.00 0.00 0.00 33 1011.3
20260504230756 72 269 1.0 2.0 0.00 0.00 0.00 33 1011.2
20260504230254 72 233 3.0 5.0 0.00 0.00 0.00 32 1011.1
20260504225753 72 239 2.0 4.0 0.00 0.00 0.00 32 1011.5
20260504225249 72 256 2.0 6.0 0.00 0.00 0.00 31 1011.1
20260504224746 72 301 1.0 4.0 0.00 0.00 0.00 31 1011.1
20260504224243 73 207 2.0 4.0 0.00 0.00 0.00 32 1011.2
20260504223740 73 234 2.0 8.0 0.00 0.00 0.00 30 1011.2
20260504223235 73 246 3.0 6.0 0.00 0.00 0.00 31 1011.2
20260504222732 73 217 2.0 7.0 0.00 0.00 0.00 29 1011.3
20260504222229 73 220 2.0 6.0 0.00 0.00 0.00 30 1011.2
20260504221726 74 265 5.0 5.0 0.00 0.00 0.00 29 1011.3
20260504221218 75 254 5.0 10.0 0.00 0.00 0.00 28 1011.4
20260504220714 76 237 4.0 9.0 0.00 0.00 0.00 27 1011.3
20260504220212 76 260 2.0 5.0 0.00 0.00 0.00 28 1011.4
20260504215708 77 251 2.0 5.0 0.00 0.00 0.00 27 1011.3
20260504215206 77 265 3.0 4.0 0.00 0.00 0.00 27 1011.4
20260504214701 77 283 3.0 5.0 0.00 0.00 0.00 28 1011.4
20260504214158 76 248 2.0 3.0 0.00 0.00 0.00 28 1011.4
20260504213655 76 217 0.0 9.0 0.00 0.00 0.00 29 1011.3
20260504213151 77 241 2.0 11.0 0.00 0.00 0.00 28 1011.3
20260504212648 76 262 4.0 7.0 0.00 0.00 0.00 27 1011.4
20260504212144 77 251 6.0 11.0 0.00 0.00 0.00 27 1011.5
20260504211642 78 302 4.0 5.0 0.00 0.00 0.00 27 1011.4
20260504211138 77 235 2.0 3.0 0.00 0.00 0.00 27 1011.4
20260504210636 76 232 5.0 5.0 0.00 0.00 0.00 27 1011.5
20260504210132 76 245 5.0 5.0 0.00 0.00 0.00 27 1011.3
20260504205630 76 238 5.0 6.0 0.00 0.00 0.00 27 1011.4
20260504205127 76 235 8.0 10.0 0.00 0.00 0.00 27 1011.4
20260504204626 76 250 2.0 6.0 0.00 0.00 0.00 28 1011.5
20260504204124 75 238 3.0 8.0 0.00 0.00 0.00 28 1011.4
20260504203622 75 186 4.0 6.0 0.00 0.00 0.00 27 1011.4
20260504203119 75 201 3.0 7.0 0.00 0.00 0.00 28 1011.1
20260504202614 75 160 3.0 11.0 0.00 0.00 0.00 28 1011.4
20260504202111 76 269 2.0 7.0 0.00 0.00 0.00 28 1011.4
20260504201608 76 181 4.0 6.0 0.00 0.00 0.00 27 1011.5
20260504201106 75 251 5.0 6.0 0.00 0.00 0.00 27 1011.6
20260504200602 75 266 5.0 7.0 0.00 0.00 0.00 27 1011.4
20260504200059 75 221 5.0 7.0 0.00 0.00 0.00 27 1011.4
20260504195555 75 213 4.0 6.0 0.00 0.00 0.00 27 1011.4
20260504195051 75 276 5.0 6.0 0.00 0.00 0.00 28 1011.6
20260504194548 75 218 5.0 6.0 0.00 0.00 0.00 28 1011.8
20260504194043 75 226 1.0 9.0 0.00 0.00 0.00 28 1011.9
20260504193540 74 268 3.0 9.0 0.00 0.00 0.00 28 1011.9
20260504193039 74 282 3.0 6.0 0.00 0.00 0.00 29 1012.1
20260504192537 73 247 5.0 8.0 0.00 0.00 0.00 29 1012.0
20260504192035 73 251 3.0 5.0 0.00 0.00 0.00 30 1012.0
20260504191533 73 214 1.0 6.0 0.00 0.00 0.00 29 1012.2
20260504191028 73 219 2.0 6.0 0.00 0.00 0.00 33 1012.2
20260504190525 73 211 5.0 8.0 0.00 0.00 0.00 29 1012.2
20260504190021 73 231 5.0 5.0 0.00 0.00 0.00 28 1012.3
20260504185518 73 286 5.0 7.0 0.00 0.00 0.00 30 1012.3
20260504185015 72 311 1.0 5.0 0.00 0.00 0.00 31 1012.5
20260504184510 73 252 3.0 8.0 0.00 0.00 0.00 30 1012.6
20260504184006 72 234 5.0 6.0 0.00 0.00 0.00 29 1012.6
20260504183503 72 245 3.0 6.0 0.00 0.00 0.00 29 1012.8
20260504183002 72 268 2.0 7.0 0.00 0.00 0.00 30 1013.0
20260504182458 72 210 1.0 6.0 0.00 0.00 0.00 30 1012.8
20260504181955 72 235 4.0 7.0 0.00 0.00 0.00 30 1012.8
20260504181452 72 211 2.0 6.0 0.00 0.00 0.00 29 1013.0
20260504180951 71 287 3.0 6.0 0.00 0.00 0.00 30 1013.0
20260504180449 71 282 3.0 6.0 0.00 0.00 0.00 30 1013.2
20260504175947 72 254 3.0 5.0 0.00 0.00 0.00 29 1013.2
20260504175444 72 248 3.0 6.0 0.00 0.00 0.00 29 1013.4
20260504174942 72 219 3.0 5.0 0.00 0.00 0.00 31 1013.4
20260504174439 71 250 1.0 4.0 0.00 0.00 0.00 32 1013.3
20260504173936 71 222 2.0 7.0 0.00 0.00 0.00 29 1013.5
20260504173432 71 233 3.0 3.0 0.00 0.00 0.00 32 1013.6
20260504172930 71 242 4.0 9.0 0.00 0.00 0.00 29 1013.7
20260504172426 70 260 5.0 5.0 0.00 0.00 0.00 30 1013.7
20260504171923 71 268 2.0 6.0 0.00 0.00 0.00 29 1013.8
20260504171420 70 231 2.0 6.0 0.00 0.00 0.00 31 1013.9
20260504170917 70 334 3.0 8.0 0.00 0.00 0.00 29 1014.0
20260504170413 70 333 1.0 6.0 0.00 0.00 0.00 30 1013.9
20260504160332 68 245 3.0 7.0 0.00 0.00 0.00 33 1014.8
20260504150756 66 169 2.0 6.0 0.00 0.00 0.00 40 1015.1
20260504150253 66 253 5.0 5.0 0.00 0.00 0.00 38 1015.4
20260504141223 64 253 2.0 3.0 0.00 0.00 0.00 48 1015.4
20260504140720 64 258 2.0 5.0 0.00 0.00 0.00 46 1015.6
20260504140215 64 263 3.0 3.0 0.00 0.00 0.00 48 1015.6
20260504130643 60 154 0.0 5.0 0.00 0.00 0.00 57 1016.1
20260504130139 59 268 2.0 6.0 0.00 0.00 0.00 56 1016.0
20260504120104 55 278 0.0 3.0 0.00 0.00 0.00 69 1016.3
20260504110531 49 152 2.0 2.0 0.00 0.00 0.00 78 1016.9
20260504100454 48 160 0.0 2.0 0.00 0.00 0.00 75 1016.8
20260504081847 45 122 1.0 2.0 0.00 0.00 0.00 71 1016.4
20260504081343 45 122 1.0 2.0 0.00 0.00 0.00 70 1016.6
20260504080839 45 113 0.0 1.0 0.00 0.00 0.00 69 1016.6
20260504080337 45 117 1.0 2.0 0.00 0.00 0.00 70 1016.5
20260504070304 45 125 1.0 2.0 0.00 0.00 0.00 70 1016.2